Change the Weather History Date:

Thursday, December 20, 2012

  Actual Average (KGEV) Record (KGEV)
Temperature  
Mean Temperature 40 °F -  
Max Temperature 47 °F 45 °F 65 °F (1978)
Min Temperature 34 °F 24 °F 1 °F (2004)
Degree Days  
Heating Degree Days 24    
Moisture  
Dew Point 38 °F    
Average Humidity 88    
Maximum Humidity 99    
Minimum Humidity 70    
Precipitation  
Precipitation 0.45 in - - ()
Sea Level Pressure  
Sea Level Pressure 29.85 in    
Wind  
Wind Speed 10 mph (ENE)    
Max Wind Speed 36 mph    
Max Gust Speed 50 mph    
Visibility 9 miles    
Events Rain , Snow    
Averages and records for this station are not official NWS values.
T = Trace of Precipitation, MM = Missing Value Source: NWS Daily Summary

Daily Weather History Graph

Daily Weather History Graph

Search for Another Location

Airport or City:

Trip Planner

Search our weather history database for the weather conditions in past years. The results will help you decide how hot, cold, wet, or windy it might be!

Date:

Astronomy

Dec. 20, 2012 Rise Set
Actual Time 7:34 AM EST 5:12 PM EST
Civil Twilight 7:05 AM EST 5:41 PM EST
Nautical Twilight 6:32 AM EST 6:13 PM EST
Astronomical Twilight 6:01 AM EST 6:45 PM EST
Moon 12:22 PM EST (12/20) 12:27 AM EST (12/20)
Length of Visible Light 10h 35m
Length of Day
9h 37m
First Quarter, 55% of the Moon is Illuminated
Dec 20
First Quarter
Dec 28
Full
Jan 4
Last Quarter
Jan 11
New
Jan 18
First Quarter

Hourly Weather History & Observations

Time (EST) Temp. Windchill Dew Point Humidity Pressure Visibility Wind Dir Wind Speed Gust Speed Precip Events Conditions
12:15 AM 36.5 °F - 36.0 °F 98% 30.13 in 10.0 mi Calm Calm - N/A   Clear
12:35 AM 36.3 °F - 35.6 °F 97% 30.12 in 10.0 mi Calm Calm - N/A   Clear
12:55 AM 34.9 °F - 34.7 °F 99% 30.12 in 10.0 mi Calm Calm - N/A   Clear
1:15 AM 35.8 °F 33.0 °F 35.1 °F 97% 30.11 in 10.0 mi East 3.5 mph - N/A   Clear
1:55 AM 36.9 °F 33.1 °F 36.5 °F 99% 30.10 in 10.0 mi East 4.6 mph - N/A   Clear
2:15 AM 37.8 °F 33.3 °F 36.1 °F 94% 30.10 in 10.0 mi East 5.8 mph - N/A   Clear
2:35 AM 37.9 °F 33.5 °F 36.3 °F 94% 30.10 in 10.0 mi East 5.8 mph - N/A   Clear
2:55 AM 37.8 °F 32.5 °F 36.9 °F 97% 30.10 in 10.0 mi East 6.9 mph - N/A   Clear
3:15 AM 37.0 °F 33.3 °F 36.5 °F 98% 30.10 in 10.0 mi East 4.6 mph - N/A   Clear
3:35 AM 37.4 °F 33.8 °F 36.3 °F 96% 30.10 in 10.0 mi East 4.6 mph - N/A   Clear
3:55 AM 37.6 °F 35.1 °F 35.6 °F 93% 30.10 in 10.0 mi East 3.5 mph - N/A   Clear
4:15 AM 37.6 °F 34.0 °F 34.7 °F 89% 30.10 in 10.0 mi ESE 4.6 mph - N/A   Clear
4:35 AM 39.0 °F 32.8 °F 34.0 °F 82% 30.09 in 10.0 mi ENE 9.2 mph - N/A   Clear
4:55 AM 41.5 °F 33.8 °F 33.3 °F 72% 30.08 in 10.0 mi ENE 15.0 mph - N/A   Clear
5:15 AM 42.1 °F 34.2 °F 33.1 °F 70% 30.07 in 10.0 mi NNE 16.1 mph 19.6 mph N/A   Clear
5:35 AM 40.8 °F 32.3 °F 32.9 °F 73% 30.07 in 10.0 mi NE 17.3 mph 20.7 mph N/A   Clear
5:55 AM 39.6 °F 30.6 °F 32.9 °F 77% 30.06 in 10.0 mi NE 17.3 mph - N/A   Clear
6:15 AM 40.1 °F 30.5 °F 32.9 °F 75% 30.04 in 10.0 mi NNE 20.7 mph 26.5 mph N/A   Clear
6:35 AM 40.8 °F 32.6 °F 32.9 °F 73% 30.05 in 10.0 mi NE 16.1 mph 23.0 mph N/A   Clear
6:55 AM 40.8 °F 32.9 °F 33.1 °F 74% 30.04 in 10.0 mi NE 15.0 mph 20.7 mph N/A   Clear
7:15 AM 40.8 °F 31.7 °F 33.1 °F 74% 30.02 in 10.0 mi NE 19.6 mph 26.5 mph N/A   Clear
7:35 AM 39.6 °F 30.6 °F 33.1 °F 78% 29.99 in 10.0 mi ENE 17.3 mph 26.5 mph N/A   Clear
7:55 AM 40.1 °F 30.7 °F 32.9 °F 75% 29.99 in 10.0 mi NNE 19.6 mph 26.5 mph N/A   Scattered Clouds
8:15 AM 40.6 °F 32.3 °F 33.1 °F 74% 30.00 in 10.0 mi NE 16.1 mph 25.3 mph N/A   Mostly Cloudy
8:35 AM 40.5 °F 32.5 °F 33.4 °F 76% 30.00 in 10.0 mi ENE 15.0 mph 20.7 mph N/A   Overcast
8:55 AM 41.2 °F 33.7 °F 34.0 °F 76% 30.00 in 10.0 mi NE 13.8 mph 17.3 mph N/A   Overcast
9:15 AM 42.1 °F 33.9 °F 34.5 °F 75% 30.00 in 10.0 mi NE 17.3 mph 24.2 mph N/A   Overcast
9:35 AM 42.6 °F 34.3 °F 34.7 °F 74% 30.00 in 10.0 mi NE 18.4 mph 25.3 mph N/A   Overcast
9:55 AM 41.0 °F 32.5 °F 35.6 °F 81% 29.98 in 10.0 mi ENE 17.3 mph 25.3 mph N/A Rain Light Rain
10:15 AM 41.0 °F 32.5 °F 36.5 °F 84% 29.99 in 10.0 mi NNE 17.3 mph 21.9 mph 0.01 in Rain Light Rain
10:35 AM 41.0 °F 33.1 °F 36.9 °F 85% 29.99 in 7.0 mi NE 15.0 mph 20.7 mph 0.03 in Rain Light Rain
10:55 AM 41.0 °F 33.5 °F 37.6 °F 88% 29.99 in 7.0 mi NE 13.8 mph - 0.05 in Rain Light Rain
11:15 AM 41.2 °F 34.5 °F 38.3 °F 89% 29.97 in 7.0 mi ENE 11.5 mph 16.1 mph 0.03 in Rain Rain
11:35 AM 41.2 °F 33.4 °F 40.1 °F 96% 29.94 in 7.0 mi NE 15.0 mph 18.4 mph 0.06 in Rain Light Rain
11:55 AM 41.4 °F 34.0 °F 40.8 °F 98% 29.91 in 7.0 mi ENE 13.8 mph - 0.06 in Rain Light Rain
12:15 PM 41.4 °F 33.3 °F 40.8 °F 98% 29.87 in 7.0 mi NE 16.1 mph 20.7 mph N/A   Overcast
12:35 PM 41.2 °F 33.4 °F 40.6 °F 98% 29.87 in 7.0 mi NE 15.0 mph 21.9 mph N/A   Overcast
12:55 PM 41.9 °F 35.9 °F 40.8 °F 96% 29.84 in 7.0 mi NE 10.4 mph 23.0 mph N/A   Overcast
1:15 PM 42.1 °F 35.2 °F 41.0 °F 96% 29.82 in 7.0 mi NE 12.7 mph 20.7 mph N/A   Overcast
1:35 PM 42.3 °F 35.5 °F 40.8 °F 95% 29.81 in 10.0 mi NE 12.7 mph 16.1 mph N/A Rain Light Rain
1:55 PM 43.5 °F 37.9 °F 40.5 °F 89% 29.79 in 10.0 mi NE 10.4 mph - 0.01 in Rain Light Rain
2:15 PM 45.1 °F - 40.1 °F 82% 29.79 in 10.0 mi Calm Calm - 0.01 in Rain Light Rain
2:35 PM 44.2 °F 41.8 °F 40.1 °F 85% 29.76 in 10.0 mi East 4.6 mph 16.1 mph 0.02 in Rain Rain
2:55 PM 43.3 °F 40.7 °F 40.6 °F 90% 29.75 in 7.0 mi NE 4.6 mph - 0.03 in Rain Light Rain
3:15 PM 43.9 °F 39.9 °F 40.5 °F 88% 29.73 in 7.0 mi East 6.9 mph - 0.02 in Rain Light Rain
3:35 PM 43.7 °F 38.6 °F 41.2 °F 91% 29.70 in 7.0 mi East 9.2 mph 19.6 mph 0.04 in Rain Light Rain
3:55 PM 43.3 °F 38.6 °F 41.9 °F 95% 29.71 in 7.0 mi North 8.1 mph 16.1 mph 0.06 in Rain Light Rain
4:15 PM 43.7 °F 38.1 °F 42.8 °F 97% 29.70 in 7.0 mi East 10.4 mph - 0.02 in Rain Light Rain
4:35 PM 44.2 °F 38.4 °F 43.2 °F 96% 29.68 in 10.0 mi East 11.5 mph - 0.04 in Rain Light Rain
4:55 PM 44.6 °F 40.7 °F 43.0 °F 94% 29.65 in 10.0 mi East 6.9 mph 18.4 mph 0.05 in Rain Light Rain
5:15 PM 44.6 °F 38.4 °F 43.7 °F 97% 29.63 in 10.0 mi ESE 12.7 mph 19.6 mph 0.01 in Rain Light Rain
5:35 PM 45.0 °F 39.3 °F 44.1 °F 97% 29.63 in 10.0 mi ESE 11.5 mph 21.9 mph 0.03 in Rain Light Rain
5:55 PM 45.0 °F 41.8 °F 44.1 °F 97% 29.65 in 10.0 mi ESE 5.8 mph - 0.04 in Rain Light Rain
6:15 PM 44.6 °F 37.8 °F 44.2 °F 99% 29.62 in 7.0 mi ESE 15.0 mph 20.7 mph 0.02 in Rain Rain
6:35 PM 45.3 °F 40.1 °F 44.6 °F 97% 29.61 in 7.0 mi SE 10.4 mph 17.3 mph 0.04 in Rain Light Rain
6:55 PM 45.7 °F 41.0 °F 44.8 °F 97% 29.60 in 10.0 mi SE 9.2 mph - 0.06 in Rain Rain
7:15 PM 45.7 °F 44.4 °F 45.1 °F 98% 29.61 in 10.0 mi SSE 3.5 mph - N/A Rain Rain
7:35 PM 45.7 °F 43.4 °F 44.8 °F 97% 29.58 in 10.0 mi ESE 4.6 mph - 0.01 in   Overcast
7:55 PM 45.5 °F 43.2 °F 43.9 °F 94% 29.56 in 10.0 mi NE 4.6 mph - 0.01 in   Scattered Clouds
8:15 PM 47.3 °F - 43.9 °F 88% 29.53 in 10.0 mi SSW 12.7 mph 20.7 mph N/A   Scattered Clouds
8:35 PM 47.5 °F - 43.2 °F 85% 29.56 in 5.0 mi WSW 24.2 mph 32.2 mph 0.03 in Rain Light Rain
8:55 PM 46.2 °F 40.5 °F 43.9 °F 92% 29.55 in 10.0 mi WSW 12.7 mph 21.9 mph 0.06 in Rain Light Rain
9:15 PM 46.2 °F 39.8 °F 43.0 °F 88% 29.54 in 10.0 mi WSW 15.0 mph 20.7 mph N/A   Light Drizzle
9:35 PM 46.4 °F 39.2 °F 43.3 °F 89% 29.53 in 7.0 mi WSW 18.4 mph 25.3 mph 0.01 in Rain Light Rain
9:55 PM 43.9 °F 32.9 °F 38.5 °F 81% 29.54 in 10.0 mi West 35.7 mph 49.5 mph 0.02 in   Drizzle
10:15 PM 41.2 °F 30.3 °F 36.0 °F 82% 29.56 in 7.0 mi WSW 28.8 mph 44.9 mph N/A   Light Drizzle
10:35 PM 40.6 °F 29.0 °F 34.7 °F 79% 29.55 in 10.0 mi WSW 32.2 mph 38.0 mph N/A   Light Drizzle
10:55 PM 39.4 °F 27.3 °F 33.8 °F 80% 29.54 in 10.0 mi West 32.2 mph 40.3 mph N/A   Overcast
11:15 PM 38.7 °F 26.5 °F 32.7 °F 79% 29.55 in 10.0 mi West 31.1 mph 41.4 mph N/A   Overcast
11:35 PM 37.2 °F 24.3 °F 31.6 °F 80% 29.55 in 10.0 mi WSW 32.2 mph 38.0 mph N/A   Overcast
11:55 PM 36.1 °F 24.7 °F 32.0 °F 85% 29.56 in 4.0 mi West 23.0 mph 36.8 mph N/A Snow Light Snow